sat.trackr.live / text

‹ back to catalog

INMARSAT 3-F2

NORAD 24307 · 1996-053A

PAYLOAD ACTIVE UNKNOWN

§ Identity

Operator
Country
IM
Launch date
1996-09-06
Launch site
TYMSC
Launch vehicle
Mass (kg)
RCS (m²)
830.04

Purposes: comms

External: N2YO · Heavens-Above · Gunter

§ Orbital elements

Epoch: 2026-09-18T12:08:28.000032Z

Period
1,440.30 min
Inclination
10.0638°
Eccentricity
0.0005694
Mean motion
0.99979168 rev/d
Perigee alt
35,844.8 km
Apogee alt
35,892.9 km
Semi-major
42,247.0 km
B*
0.0000e+0
RAAN
52.9607°
Arg perigee
123.2997°
Mean anomaly
56.2790°
Rev number
10,985

§ Raw data

INMARSAT 3-F21 24307U 96053A   26261.50587963  .00000113  00000+0  00000+0 0  99922 24307  10.0638  52.9607 0005694 123.2997  56.2790  0.99979168109852

JSON: /api/v1/satellites/24307 · /tle

For live sub-satellite position, see the globe view (requires WebGL).

§ Visibility from observer

Set your observer location to see the next 7 days of passes ≥ 10°. The values pass through the URL so the page stays shareable.

No JS? Fill the form by hand. The geolocation button needs JavaScript.